Regional Weather Roundup
Issued by NWS

Home | Current Version | Previous Version | Graphics & Text | Print | Product List | Glossary On
Versions: 1 2 3 4 5 6 7 8 9 10 11 12 13 14 15 16 17 18 19 20 21 22 23 24 25 26 27 28
000
ASUS45 KBOI 260410
RWRID

IDAHO REGIONAL WEATHER ROUNDUP
NATIONAL WEATHER SERVICE BOISE ID
1000 PM MDT WED APR 25 2018

NOTE: "FAIR" INDICATES FEW OR NO CLOUDS BELOW 12000 FEET
WITH NO SIGNIFICANT WEATHER AND/OR OBSTRUCTIONS TO VISIBILITY

IDZ012-014-260500-
SOUTHWEST IDAHO


CITY           SKY/WX    TMP DP  RH WIND       PRES   REMARKS
BOISE          CLEAR     64  34  32 E5        30.09R
CALDWELL       CLEAR     66  33  29 CALM      30.08R
MOUNTAIN HOME  CLEAR     64  28  26 NW9       30.08R
$$

IDZ016-017-260500-
SOUTHCENTRAL IDAHO


CITY           SKY/WX    TMP DP  RH WIND       PRES   REMARKS
BURLEY         CLEAR     50  28  42 S10G18    30.10R
JEROME         CLEAR     57  24  28 W7        30.11R
TWIN FALLS     CLEAR     51  28  41 SW12      30.12R
$$

IDZ019>023-260500-
SOUTHEAST IDAHO


CITY           SKY/WX    TMP DP  RH WIND       PRES   REMARKS
IDAHO FALLS    CLEAR     50  32  50 NE7       30.13R
POCATELLO      CLEAR     55  29  36 SW9       30.12R
REXBURG        CLEAR     53  30  41 S3        30.13R
$$

IDZ006-010-011-018-031-032-260500-
CENTRAL IDAHO MOUNTAINS


CITY           SKY/WX    TMP DP  RH WIND       PRES   REMARKS
MCCALL         CLEAR     50  35  56 N7        30.17R
HAILEY         CLEAR     57  23  26 NW6       30.16R
STANLEY          N/A     37  26  64 S5        30.24R WCI  33
SALMON         CLEAR     57  24  28 E5        30.16R
CHALLIS        CLEAR     53  23  31 W6        30.16R
$$

IDZ002-004-006-007-026-260500-
NORTHERN IDAHO


CITY           SKY/WX    TMP DP  RH WIND       PRES   REMARKS
LEWISTON       CLEAR     63  41  44 S6        30.10R
LOWELL           N/A     53  44  71 N3        30.13R
COEUR D`ALENE  CLEAR     57  34  41 SE3       30.11R
MULLAN PASS    CLEAR     46  25  43 NW3       30.22R
$$




USA.gov is the U.S. government's official web portal to all federal, state and local government web resources and services.